This demonstration page uses our WeatherBlox Daily Observations layout. Learn more.

39.08367, -84.50855

Hourly Observations for July 2, 2019

Temp ( °F °C ) Dew Point ( °F °C ) Humidity (%) Winds ( mph kmh ) Pressure ( in mb ) Visibility ( mi km ) Precip ( " mm )
12:53 am 00:53 Partly Cloudy 77 25 71 21.7 82 82 WSW 6 9 29.94 1014 10 16.09344 0 0
1:53 am 01:53 Clear 77 25 72 22.2 85 85 SW 5 7 29.94 1014 10 16.09344 0 0
2:09 am 02:09 Mostly Cloudy with Nearby Thunderstorms 79 26.1 72 22.2 79 79 Calm 29.94 1014 10 16.09344 0 0
2:37 am 02:37 Mostly Cloudy 75 23.9 72 22.2 90 90 ESE 3 6 29.94 1014 10 16.09344 0 0
2:53 am 02:53 Mostly Clear 76 24.4 72 22.2 88 88 Calm 29.94 1014 10 16.09344 0 0
3:53 am 03:53 Mostly Cloudy 75 23.9 72 22.2 90 90 Calm 29.94 1014 10 16.09344 0 0
4:53 am 04:53 Clear 73 22.8 71 21.7 94 94 S 5 7 29.94 1014 10 16.09344 0 0
5:53 am 05:53 Mostly Clear 73 22.8 71 21.7 94 94 Calm 29.94 1014 10 16.09344 0 0
6:53 am 06:53 Sunny with Mist and Fog 71 21.7 70 21.1 96 96 S 5 7 29.97 1015 6 9.656064 0 0
7:53 am 07:53 Mostly Sunny 78 25.6 74 23.3 87 87 S 3 6 29.97 1015 10 16.09344 0 0
8:53 am 08:53 Sunny 83 28.3 72 22.2 70 70 W 5 7 29.97 1015 10 16.09344 0 0
9:53 am 09:53 Sunny 85 29.4 71 21.7 63 63 W 6 9 29.97 1015 10 16.09344 0 0
10:53 am 10:53 Sunny 86 30 72 22.2 63 63 WSW 6 9 29.97 1015 10 16.09344 0 0
11:53 am 11:53 Mostly Sunny 87 30.6 73 22.8 63 63 WSW 7 11 29.94 1014 10 16.09344 0 0
12:53 pm 12:53 Partly Cloudy 88 31.1 71 21.7 57 57 WSW 10 17 29.94 1014 10 16.09344 0 0
1:53 pm 13:53 Partly Cloudy 90 32.2 72 22.2 56 56 VRB 3 6 29.91 1013 10 16.09344 0 0
2:53 pm 14:53 Mostly Sunny 91 32.8 72 22.2 54 54 W 10 17 29.91 1013 10 16.09344 0 0
3:53 pm 15:53 Mostly Cloudy 89 31.7 71 21.7 55 55 WNW 12 19 29.88 1012 10 16.09344 0 0
4:06 pm 16:06 Mostly Cloudy with Light Thunderstorms 86 30 68 20 55 55 W 13 20 29.91 1013 10 16.09344 0.001 0.001
4:53 pm 16:53 Mostly Cloudy with Light Thunderstorms 79 26.1 68 20 69 69 S 5 7 29.91 1013 10 16.09344 0.001 0.001
5:23 pm 17:23 Sunny 78 25.6 67 19.4 69 69 S 9 15 29.91 1013 10 16.09344 0.001 0.001
5:53 pm 17:53 Sunny 78 25.6 66 18.9 67 67 SW 5 7 29.88 1012 10 16.09344 0.001 0.001
6:53 pm 18:53 Sunny 77 25 68 20 74 74 Calm 29.88 1012 10 16.09344 0 0
7:53 pm 19:53 Sunny 76 24.4 68 20 77 77 SW 6 9 29.88 1012 10 16.09344 0 0
8:53 pm 20:53 Sunny 75 23.9 69 20.6 82 82 SSW 5 7 29.88 1012 10 16.09344 0 0
9:53 pm 21:53 Clear 75 23.9 69 20.6 82 82 SSE 3 6 29.91 1013 10 16.09344 0 0
10:53 pm 22:53 Clear 74 23.3 69 20.6 85 85 WSW 5 7 29.91 1013 10 16.09344 0 0
11:53 pm 23:53 Mostly Clear 73 22.8 70 21.1 90 90 SSW 5 7 29.91 1013 10 16.09344 0 0

Powered by AerisWeather